Time,TemperatureF,DewpointF,PressureIn,WindDirection,WindDirectionDegrees,WindSpeedMPH,WindSpeedGustMPH,Humidity,HourlyPrecipIn,Conditions,Clouds,dailyrainin,SolarRadiationWatts/m^2,SoftwareType,DateUTC
2013-01-06 00:00:00,34.9,34.7,30.14,WNW,289,0.0,2.0,99,0.02,,,0.26,0.0,meteohub,2013-01-06 08:00:00,
2013-01-06 00:05:00,34.9,34.7,30.14,WNW,289,1.0,3.0,99,0.04,,,0.01,0.0,meteohub,2013-01-06 08:05:00,
2013-01-06 00:10:00,34.7,34.5,30.14,WNW,289,0.0,3.0,99,0.05,,,0.02,0.0,meteohub,2013-01-06 08:10:00,
2013-01-06 00:15:00,34.7,34.5,30.14,WNW,289,0.0,3.0,99,0.05,,,0.03,0.0,meteohub,2013-01-06 08:15:00,
2013-01-06 00:20:00,34.7,34.5,30.14,WNW,289,1.0,3.0,99,0.07,,,0.04,0.0,meteohub,2013-01-06 08:20:00,
2013-01-06 00:25:00,34.7,34.5,30.15,WNW,289,0.0,1.0,99,0.08,,,0.05,0.0,meteohub,2013-01-06 08:25:00,
2013-01-06 00:30:00,34.7,34.5,30.14,WNW,289,0.0,1.0,99,0.08,,,0.05,0.0,meteohub,2013-01-06 08:30:00,
2013-01-06 00:35:00,34.9,34.7,30.15,WNW,289,1.0,1.0,99,0.08,,,0.06,0.0,meteohub,2013-01-06 08:35:00,
2013-01-06 00:40:00,34.9,34.7,30.14,WNW,289,0.0,3.0,99,0.09,,,0.07,0.0,meteohub,2013-01-06 08:40:00,
2013-01-06 00:45:00,34.7,34.5,30.14,WNW,289,2.0,3.0,99,0.09,,,0.07,0.0,meteohub,2013-01-06 08:45:00,
2013-01-06 00:50:00,34.9,34.7,30.14,WNW,289,2.0,3.0,99,0.09,,,0.08,0.0,meteohub,2013-01-06 08:50:00,
2013-01-06 00:55:00,34.9,34.7,30.14,WNW,289,0.0,2.0,99,0.10,,,0.09,0.0,meteohub,2013-01-06 08:55:00,
2013-01-06 01:00:00,34.9,34.7,30.15,WNW,289,0.0,2.0,99,0.09,,,0.09,0.0,meteohub,2013-01-06 09:00:00,
2013-01-06 01:05:00,35.1,34.9,30.15,WNW,289,0.0,4.0,99,0.09,,,0.10,0.0,meteohub,2013-01-06 09:05:00,
2013-01-06 01:10:00,34.9,34.7,30.14,WNW,288,0.0,4.0,99,0.09,,,0.10,0.0,meteohub,2013-01-06 09:10:00,
2013-01-06 01:15:00,34.9,34.7,30.14,WNW,288,1.0,4.0,99,0.08,,,0.11,0.0,meteohub,2013-01-06 09:15:00,
2013-01-06 01:20:00,34.9,34.7,30.14,WNW,288,0.0,4.0,99,0.08,,,0.12,0.0,meteohub,2013-01-06 09:20:00,
2013-01-06 01:25:00,34.9,34.7,30.14,WNW,288,0.0,3.0,99,0.08,,,0.13,0.0,meteohub,2013-01-06 09:25:00,
2013-01-06 01:30:00,34.9,34.7,30.14,WNW,288,0.0,2.0,99,0.07,,,0.13,0.0,meteohub,2013-01-06 09:30:00,
2013-01-06 01:36:00,34.9,34.7,30.15,WNW,288,2.0,2.0,99,0.07,,,0.13,0.0,meteohub,2013-01-06 09:36:00,
2013-01-06 01:41:00,34.9,34.7,30.15,WNW,288,1.0,3.0,99,0.06,,,0.13,0.0,meteohub,2013-01-06 09:41:00,
2013-01-06 01:46:00,34.7,34.5,30.15,WNW,288,0.0,3.0,99,0.07,,,0.14,0.0,meteohub,2013-01-06 09:46:00,
2013-01-06 01:51:00,34.9,34.7,30.16,WNW,286,1.0,3.0,99,0.06,,,0.14,0.0,meteohub,2013-01-06 09:51:00,
2013-01-06 01:56:00,34.9,34.7,30.16,WNW,286,0.0,4.0,99,0.05,,,0.14,0.0,meteohub,2013-01-06 09:56:00,
2013-01-06 02:01:00,34.7,34.5,30.16,WNW,286,2.0,4.0,99,0.06,,,0.15,0.0,meteohub,2013-01-06 10:01:00,
2013-01-06 02:06:00,34.7,34.5,30.16,WNW,286,0.0,3.0,99,0.06,,,0.16,0.0,meteohub,2013-01-06 10:06:00,
2013-01-06 02:11:00,34.7,34.5,30.16,WNW,286,0.0,3.0,99,0.05,,,0.16,0.0,meteohub,2013-01-06 10:11:00,
2013-01-06 02:16:00,34.7,34.5,30.16,WNW,286,0.0,3.0,99,0.05,,,0.17,0.0,meteohub,2013-01-06 10:16:00,
2013-01-06 02:21:00,34.7,34.5,30.16,WNW,286,1.0,3.0,99,0.05,,,0.17,0.0,meteohub,2013-01-06 10:21:00,
2013-01-06 02:26:00,34.7,34.5,30.16,WNW,286,2.0,2.0,99,0.04,,,0.17,0.0,meteohub,2013-01-06 10:26:00,
2013-01-06 02:31:00,34.7,34.5,30.16,WNW,286,0.0,3.0,99,0.04,,,0.17,0.0,meteohub,2013-01-06 10:31:00,
2013-01-06 02:36:00,34.9,34.7,30.16,WNW,286,3.0,3.0,99,0.05,,,0.18,0.0,meteohub,2013-01-06 10:36:00,
2013-01-06 02:41:00,34.7,34.5,30.16,WNW,286,2.0,4.0,99,0.05,,,0.18,0.0,meteohub,2013-01-06 10:41:00,
2013-01-06 02:46:00,34.7,34.5,30.17,WNW,286,0.0,4.0,99,0.04,,,0.18,0.0,meteohub,2013-01-06 10:46:00,
2013-01-06 02:51:00,34.9,34.7,30.17,WNW,286,0.0,4.0,99,0.04,,,0.18,0.0,meteohub,2013-01-06 10:51:00,
2013-01-06 02:56:00,34.9,34.7,30.17,WNW,286,1.0,4.0,99,0.03,,,0.18,0.0,meteohub,2013-01-06 10:56:00,
2013-01-06 03:01:00,34.7,34.5,30.17,WNW,286,0.0,3.0,99,0.02,,,0.18,0.0,meteohub,2013-01-06 11:01:00,
2013-01-06 03:06:00,34.9,34.7,30.16,WNW,286,0.0,3.0,99,0.02,,,0.18,0.0,meteohub,2013-01-06 11:06:00,
2013-01-06 03:11:00,34.9,34.7,30.17,WNW,286,1.0,3.0,99,0.01,,,0.18,0.0,meteohub,2013-01-06 11:11:00,
2013-01-06 03:16:00,34.9,34.7,30.16,WNW,286,0.0,2.0,99,0.01,,,0.18,0.0,meteohub,2013-01-06 11:16:00,
2013-01-06 03:21:00,34.7,34.5,30.16,WNW,286,1.0,2.0,99,0.01,,,0.18,0.0,meteohub,2013-01-06 11:21:00,
2013-01-06 03:26:00,34.9,34.7,30.16,WNW,286,2.0,2.0,99,0.02,,,0.19,0.0,meteohub,2013-01-06 11:26:00,
2013-01-06 03:31:00,34.9,34.7,30.16,WNW,286,1.0,2.0,99,0.01,,,0.19,0.0,meteohub,2013-01-06 11:31:00,
2013-01-06 03:37:00,34.9,34.7,30.16,WNW,286,1.0,2.0,99,0.01,,,0.19,0.0,meteohub,2013-01-06 11:37:00,
2013-01-06 03:42:00,35.1,34.9,30.16,WNW,286,2.0,3.0,99,0.01,,,0.19,0.0,meteohub,2013-01-06 11:42:00,
2013-01-06 03:47:00,34.9,34.7,30.16,WNW,286,0.0,3.0,99,0.01,,,0.19,0.0,meteohub,2013-01-06 11:47:00,
2013-01-06 03:52:00,34.9,34.7,30.16,WNW,286,1.0,3.0,99,0.01,,,0.19,0.0,meteohub,2013-01-06 11:52:00,
2013-01-06 03:57:00,34.9,34.7,30.16,WNW,286,1.0,4.0,99,0.01,,,0.19,0.0,meteohub,2013-01-06 11:57:00,
2013-01-06 04:02:00,34.9,34.7,30.16,WNW,286,2.0,4.0,99,0.01,,,0.19,0.0,meteohub,2013-01-06 12:02:00,
2013-01-06 04:07:00,34.9,34.7,30.15,WNW,286,1.0,4.0,99,0.01,,,0.19,0.0,meteohub,2013-01-06 12:07:00,
2013-01-06 04:12:00,34.7,34.5,30.16,WNW,286,1.0,3.0,99,0.01,,,0.19,0.0,meteohub,2013-01-06 12:12:00,
2013-01-06 04:17:00,34.7,34.5,30.15,WNW,286,2.0,3.0,99,0.01,,,0.19,0.0,meteohub,2013-01-06 12:17:00,
2013-01-06 04:22:00,34.7,34.5,30.15,WNW,286,1.0,3.0,99,0.00,,,0.19,0.0,meteohub,2013-01-06 12:22:00,
2013-01-06 04:27:00,34.7,34.5,30.15,WNW,286,0.0,2.0,99,0.00,,,0.19,0.0,meteohub,2013-01-06 12:27:00,
2013-01-06 04:32:00,34.9,34.7,30.15,WNW,286,1.0,2.0,99,0.00,,,0.19,0.0,meteohub,2013-01-06 12:32:00,
2013-01-06 04:37:00,35.1,34.9,30.15,WNW,286,2.0,2.0,99,0.00,,,0.19,0.0,meteohub,2013-01-06 12:37:00,
2013-01-06 04:42:00,35.1,34.9,30.15,WNW,286,2.0,2.0,99,0.00,,,0.19,0.0,meteohub,2013-01-06 12:42:00,
2013-01-06 04:47:00,35.1,34.9,30.15,WNW,286,4.0,4.0,99,0.00,,,0.19,0.0,meteohub,2013-01-06 12:47:00,
2013-01-06 04:52:00,35.1,34.9,30.15,WNW,286,2.0,4.0,99,0.00,,,0.19,0.0,meteohub,2013-01-06 12:52:00,
2013-01-06 04:57:00,35.2,35.1,30.15,WNW,286,1.0,4.0,99,0.00,,,0.19,0.0,meteohub,2013-01-06 12:57:00,
2013-01-06 05:02:00,35.2,35.1,30.15,WNW,286,0.0,4.0,99,0.00,,,0.19,0.0,meteohub,2013-01-06 13:02:00,
2013-01-06 05:07:00,35.2,35.1,30.15,WNW,286,0.0,3.0,99,0.00,,,0.19,0.0,meteohub,2013-01-06 13:07:00,
2013-01-06 05:12:00,35.2,35.1,30.15,WNW,286,0.0,2.0,99,0.00,,,0.19,0.0,meteohub,2013-01-06 13:12:00,
2013-01-06 05:17:00,35.2,35.1,30.15,WNW,286,0.0,2.0,99,0.00,,,0.19,0.0,meteohub,2013-01-06 13:17:00,
2013-01-06 05:22:00,35.2,35.2,30.15,WNW,286,1.0,2.0,100,0.00,,,0.19,0.0,meteohub,2013-01-06 13:22:00,
2013-01-06 05:27:00,35.2,35.2,30.15,WNW,286,0.0,2.0,100,0.00,,,0.19,0.0,meteohub,2013-01-06 13:27:00,
2013-01-06 05:32:00,35.2,35.2,30.15,WNW,286,1.0,2.0,100,0.00,,,0.19,0.0,meteohub,2013-01-06 13:32:00,
2013-01-06 05:37:00,35.2,35.2,30.15,WNW,286,2.0,2.0,100,0.00,,,0.19,0.0,meteohub,2013-01-06 13:37:00,
2013-01-06 05:42:00,35.2,35.2,30.15,WNW,286,2.0,2.0,100,0.00,,,0.19,0.0,meteohub,2013-01-06 13:42:00,
2013-01-06 05:47:00,35.2,35.2,30.15,WNW,286,0.0,3.0,100,0.00,,,0.19,0.0,meteohub,2013-01-06 13:47:00,
2013-01-06 05:52:00,35.2,35.2,30.15,WNW,286,0.0,3.0,100,0.00,,,0.19,0.0,meteohub,2013-01-06 13:52:00,
2013-01-06 05:57:00,35.2,35.2,30.15,WNW,286,0.0,3.0,100,0.00,,,0.19,0.0,meteohub,2013-01-06 13:57:00,
2013-01-06 06:02:00,35.2,35.1,30.15,WNW,286,3.0,3.0,99,0.00,,,0.19,0.0,meteohub,2013-01-06 14:02:00,
2013-01-06 06:07:00,35.2,35.2,30.15,WNW,286,1.0,3.0,100,0.00,,,0.19,0.0,meteohub,2013-01-06 14:07:00,
2013-01-06 06:12:00,35.4,35.4,30.15,WNW,286,2.0,3.0,100,0.00,,,0.19,0.0,meteohub,2013-01-06 14:12:00,
2013-01-06 06:17:00,35.2,35.2,30.15,WNW,286,1.0,4.0,100,0.00,,,0.19,0.0,meteohub,2013-01-06 14:17:00,
2013-01-06 06:22:00,35.4,35.4,30.16,WNW,286,0.0,4.0,100,0.00,,,0.19,0.0,meteohub,2013-01-06 14:22:00,
2013-01-06 06:27:00,35.4,35.4,30.15,WNW,286,2.0,4.0,100,0.00,,,0.19,0.0,meteohub,2013-01-06 14:27:00,
2013-01-06 06:32:00,35.6,35.6,30.15,WNW,286,1.0,3.0,100,0.00,,,0.19,0.0,meteohub,2013-01-06 14:32:00,
2013-01-06 06:37:00,35.4,35.4,30.15,WNW,286,2.0,3.0,100,0.00,,,0.19,0.0,meteohub,2013-01-06 14:37:00,
2013-01-06 06:42:00,35.6,35.6,30.15,WNW,286,1.0,3.0,100,0.00,,,0.19,0.0,meteohub,2013-01-06 14:42:00,
2013-01-06 06:47:00,35.6,35.6,30.15,WNW,286,0.0,3.0,100,0.00,,,0.19,0.0,meteohub,2013-01-06 14:47:00,
2013-01-06 06:52:00,35.6,35.6,30.15,WNW,286,2.0,3.0,100,0.00,,,0.19,0.0,meteohub,2013-01-06 14:52:00,
2013-01-06 06:57:00,35.6,35.6,30.15,WNW,286,1.0,4.0,100,0.00,,,0.19,0.0,meteohub,2013-01-06 14:57:00,
2013-01-06 07:02:00,35.6,35.6,30.15,WNW,286,2.0,4.0,100,0.00,,,0.19,0.0,meteohub,2013-01-06 15:02:00,
2013-01-06 07:07:00,35.6,35.6,30.15,WNW,286,1.0,4.0,100,0.00,,,0.19,0.0,meteohub,2013-01-06 15:07:00,
2013-01-06 07:12:00,35.6,35.6,30.16,WNW,286,0.0,2.0,100,0.00,,,0.19,0.0,meteohub,2013-01-06 15:12:00,
2013-01-06 07:17:00,35.6,35.6,30.16,WNW,286,0.0,2.0,100,0.00,,,0.19,0.0,meteohub,2013-01-06 15:17:00,
2013-01-06 07:22:00,35.6,35.6,30.16,WNW,286,0.0,2.0,100,0.00,,,0.19,0.0,meteohub,2013-01-06 15:22:00,
2013-01-06 07:27:00,35.6,35.6,30.16,WNW,286,0.0,3.0,100,0.00,,,0.19,0.0,meteohub,2013-01-06 15:27:00,
2013-01-06 07:33:00,35.6,35.6,30.16,WNW,286,1.0,3.0,100,0.00,,,0.19,0.0,meteohub,2013-01-06 15:33:00,
2013-01-06 07:38:00,35.4,35.4,30.16,WNW,286,0.0,3.0,100,0.00,,,0.19,0.0,meteohub,2013-01-06 15:38:00,
2013-01-06 07:43:00,35.4,35.4,30.17,WNW,286,0.0,2.0,100,0.00,,,0.19,0.0,meteohub,2013-01-06 15:43:00,
2013-01-06 07:48:00,35.4,35.4,30.17,WNW,286,0.0,2.0,100,0.00,,,0.19,0.0,meteohub,2013-01-06 15:48:00,
2013-01-06 07:53:00,35.6,35.6,30.17,WNW,286,2.0,2.0,100,0.00,,,0.19,0.0,meteohub,2013-01-06 15:53:00,
2013-01-06 07:58:00,35.6,35.6,30.17,WNW,286,0.0,4.0,100,0.00,,,0.19,0.0,meteohub,2013-01-06 15:58:00,
2013-01-06 08:03:00,35.6,35.6,30.17,WNW,286,0.0,4.0,100,0.00,,,0.19,0.0,meteohub,2013-01-06 16:03:00,
2013-01-06 08:08:00,35.6,35.6,30.17,WNW,286,0.0,4.0,100,0.00,,,0.19,5.0,meteohub,2013-01-06 16:08:00,
2013-01-06 08:13:00,35.6,35.6,30.17,WNW,286,0.0,4.0,100,0.00,,,0.19,7.0,meteohub,2013-01-06 16:13:00,
2013-01-06 08:18:00,35.6,35.6,30.17,WNW,286,0.0,2.0,100,0.00,,,0.19,7.0,meteohub,2013-01-06 16:18:00,
2013-01-06 08:23:00,35.6,35.6,30.17,WNW,286,0.0,1.0,100,0.00,,,0.19,5.0,meteohub,2013-01-06 16:23:00,
2013-01-06 08:28:00,35.6,35.6,30.18,WNW,286,0.0,1.0,100,0.00,,,0.19,7.0,meteohub,2013-01-06 16:28:00,
2013-01-06 08:33:00,35.6,35.6,30.18,WNW,286,1.0,1.0,100,0.00,,,0.19,5.0,meteohub,2013-01-06 16:33:00,
2013-01-06 08:38:00,35.6,35.6,30.18,WNW,286,1.0,1.0,100,0.00,,,0.19,7.0,meteohub,2013-01-06 16:38:00,
2013-01-06 08:43:00,35.6,35.6,30.19,WNW,286,0.0,2.0,100,0.00,,,0.19,9.0,meteohub,2013-01-06 16:43:00,
2013-01-06 08:48:00,35.6,35.6,30.18,WNW,286,0.0,2.0,100,0.01,,,0.20,11.0,meteohub,2013-01-06 16:48:00,
2013-01-06 08:53:00,35.8,35.8,30.19,WNW,286,0.0,2.0,100,0.01,,,0.20,14.0,meteohub,2013-01-06 16:53:00,
2013-01-06 08:58:00,35.8,35.8,30.19,WNW,286,0.0,1.0,100,0.01,,,0.20,25.0,meteohub,2013-01-06 16:58:00,
2013-01-06 09:03:00,35.8,35.8,30.19,WNW,286,0.0,1.0,100,0.01,,,0.20,30.0,meteohub,2013-01-06 17:03:00,
2013-01-06 09:08:00,35.8,35.8,30.18,WNW,286,0.0,2.0,100,0.01,,,0.20,28.0,meteohub,2013-01-06 17:08:00,
2013-01-06 09:13:00,35.8,35.8,30.18,WNW,286,2.0,2.0,100,0.01,,,0.20,30.0,meteohub,2013-01-06 17:13:00,
2013-01-06 09:18:00,36.0,36.0,30.18,WNW,286,0.0,3.0,100,0.01,,,0.20,30.0,meteohub,2013-01-06 17:18:00,
2013-01-06 09:23:00,36.0,36.0,30.19,WNW,286,0.0,3.0,100,0.01,,,0.20,23.0,meteohub,2013-01-06 17:23:00,
2013-01-06 09:29:00,36.0,36.0,30.18,WNW,286,0.0,3.0,100,0.01,,,0.20,19.0,meteohub,2013-01-06 17:29:00,
2013-01-06 09:34:00,36.0,36.0,30.18,WNW,286,0.0,2.0,100,0.01,,,0.20,30.0,meteohub,2013-01-06 17:34:00,
2013-01-06 09:39:00,36.1,36.1,30.18,WNW,286,1.0,2.0,100,0.01,,,0.20,32.0,meteohub,2013-01-06 17:39:00,
2013-01-06 09:44:00,36.1,36.1,30.18,WNW,286,0.0,2.0,100,0.00,,,0.20,33.0,meteohub,2013-01-06 17:44:00,
2013-01-06 09:49:00,36.1,36.1,30.18,WNW,286,0.0,2.0,100,0.00,,,0.20,40.0,meteohub,2013-01-06 17:49:00,
2013-01-06 09:54:00,36.1,36.1,30.19,WNW,286,1.0,2.0,100,0.00,,,0.20,39.0,meteohub,2013-01-06 17:54:00,
2013-01-06 09:59:00,36.1,36.1,30.19,WNW,286,1.0,2.0,100,0.00,,,0.20,33.0,meteohub,2013-01-06 17:59:00,
2013-01-06 10:04:00,36.1,36.1,30.19,WNW,286,1.0,2.0,100,0.00,,,0.20,33.0,meteohub,2013-01-06 18:04:00,
2013-01-06 10:09:00,36.3,36.3,30.19,WNW,286,0.0,2.0,100,0.00,,,0.20,44.0,meteohub,2013-01-06 18:09:00,
2013-01-06 10:14:00,36.5,36.5,30.19,WNW,286,0.0,2.0,100,0.00,,,0.20,42.0,meteohub,2013-01-06 18:14:00,
2013-01-06 10:19:00,36.5,36.5,30.19,WNW,286,0.0,2.0,100,0.01,,,0.21,47.0,meteohub,2013-01-06 18:19:00,
2013-01-06 10:24:00,36.7,36.7,30.19,WNW,286,0.0,2.0,100,0.01,,,0.21,56.0,meteohub,2013-01-06 18:24:00,
2013-01-06 10:29:00,36.9,36.9,30.19,WNW,286,1.0,1.0,100,0.01,,,0.21,51.0,meteohub,2013-01-06 18:29:00,
2013-01-06 10:34:00,36.9,36.9,30.19,WNW,286,1.0,1.0,100,0.01,,,0.21,49.0,meteohub,2013-01-06 18:34:00,
2013-01-06 10:39:00,36.9,36.9,30.19,WNW,286,1.0,2.0,100,0.01,,,0.21,42.0,meteohub,2013-01-06 18:39:00,
2013-01-06 10:44:00,36.9,36.9,30.19,WNW,286,1.0,3.0,100,0.01,,,0.21,49.0,meteohub,2013-01-06 18:44:00,
2013-01-06 10:49:00,36.9,36.9,30.18,WNW,286,1.0,3.0,100,0.01,,,0.21,46.0,meteohub,2013-01-06 18:49:00,
2013-01-06 10:54:00,36.9,36.9,30.18,WNW,286,0.0,3.0,100,0.02,,,0.22,44.0,meteohub,2013-01-06 18:54:00,
2013-01-06 10:59:00,37.0,37.0,30.18,WNW,286,0.0,3.0,100,0.02,,,0.22,49.0,meteohub,2013-01-06 18:59:00,
2013-01-06 11:05:00,37.2,37.2,30.17,WNW,286,1.0,3.0,100,0.02,,,0.22,95.0,meteohub,2013-01-06 19:05:00,
2013-01-06 11:10:00,37.2,37.2,30.17,WNW,286,0.0,3.0,100,0.02,,,0.22,105.0,meteohub,2013-01-06 19:10:00,
2013-01-06 11:15:00,37.6,37.6,30.17,WNW,286,0.0,2.0,100,0.01,,,0.22,113.0,meteohub,2013-01-06 19:15:00,
2013-01-06 11:20:00,37.8,37.8,30.17,WNW,286,0.0,2.0,100,0.01,,,0.22,107.0,meteohub,2013-01-06 19:20:00,
2013-01-06 11:25:00,37.9,37.9,30.16,WNW,286,0.0,2.0,100,0.01,,,0.22,102.0,meteohub,2013-01-06 19:25:00,
2013-01-06 11:30:00,37.9,37.9,30.16,WNW,286,2.0,3.0,100,0.01,,,0.22,67.0,meteohub,2013-01-06 19:30:00,
2013-01-06 11:35:00,37.9,37.9,30.16,WNW,286,1.0,3.0,100,0.01,,,0.22,63.0,meteohub,2013-01-06 19:35:00,
2013-01-06 11:40:00,37.8,37.8,30.16,WNW,286,2.0,3.0,100,0.01,,,0.22,63.0,meteohub,2013-01-06 19:40:00,
2013-01-06 11:46:00,37.8,37.8,30.15,WNW,286,1.0,3.0,100,0.01,,,0.22,56.0,meteohub,2013-01-06 19:46:00,
2013-01-06 11:51:00,37.8,37.8,30.15,WNW,286,0.0,3.0,100,0.00,,,0.22,54.0,meteohub,2013-01-06 19:51:00,
2013-01-06 11:57:00,37.9,37.9,30.15,WNW,286,0.0,3.0,100,0.00,,,0.22,81.0,meteohub,2013-01-06 19:57:00,
2013-01-06 12:02:00,37.9,37.9,30.14,WNW,286,2.0,3.0,100,0.00,,,0.22,81.0,meteohub,2013-01-06 20:02:00,
2013-01-06 12:07:00,37.9,37.9,30.14,WNW,286,1.0,3.0,100,0.00,,,0.22,74.0,meteohub,2013-01-06 20:07:00,
2013-01-06 12:11:00,37.9,37.9,30.14,WNW,286,2.0,3.0,100,0.00,,,0.22,77.0,meteohub,2013-01-06 20:11:00,
2013-01-06 12:16:00,38.1,38.1,30.14,WNW,286,2.0,5.0,100,0.00,,,0.22,86.0,meteohub,2013-01-06 20:16:00,
2013-01-06 12:17:00,38.1,38.1,30.14,WNW,286,1.0,5.0,100,0.00,,,0.22,84.0,meteohub,2013-01-06 20:17:00,
2013-01-06 12:22:00,38.5,38.5,30.14,WNW,286,1.0,5.0,100,0.00,,,0.22,76.0,meteohub,2013-01-06 20:22:00,
2013-01-06 12:27:00,38.5,38.5,30.14,WNW,286,0.0,3.0,100,0.00,,,0.22,70.0,meteohub,2013-01-06 20:27:00,
2013-01-06 12:32:00,38.7,38.7,30.14,WNW,286,2.0,4.0,100,0.00,,,0.22,79.0,meteohub,2013-01-06 20:32:00,
2013-01-06 12:37:00,38.7,38.7,30.14,NW,321,0.0,5.0,100,0.00,,,0.22,65.0,meteohub,2013-01-06 20:37:00,
2013-01-06 12:42:00,38.8,38.8,30.14,NW,321,1.0,6.0,100,0.00,,,0.22,77.0,meteohub,2013-01-06 20:42:00,
2013-01-06 12:48:00,39.0,39.0,30.14,NW,321,1.0,6.0,100,0.00,,,0.22,77.0,meteohub,2013-01-06 20:48:00,
2013-01-06 12:53:00,39.0,39.0,30.14,West,277,4.0,6.0,100,0.00,,,0.22,81.0,meteohub,2013-01-06 20:53:00,
2013-01-06 12:58:00,39.2,39.2,30.13,West,263,2.0,5.0,100,0.00,,,0.22,84.0,meteohub,2013-01-06 20:58:00,
2013-01-06 13:01:00,39.2,39.2,30.14,West,263,2.0,7.0,100,0.00,,,0.22,88.0,meteohub,2013-01-06 21:01:00,
2013-01-06 13:06:00,39.4,39.4,30.14,West,263,1.0,7.0,100,0.00,,,0.22,74.0,meteohub,2013-01-06 21:06:00,
2013-01-06 13:11:00,39.6,39.6,30.14,SW,232,2.0,5.0,100,0.00,,,0.22,62.0,meteohub,2013-01-06 21:11:00,
2013-01-06 13:16:00,39.6,39.4,30.14,SW,232,0.0,6.0,99,0.00,,,0.22,58.0,meteohub,2013-01-06 21:16:00,
2013-01-06 13:21:00,39.7,39.6,30.14,SW,232,0.0,6.0,99,0.00,,,0.22,67.0,meteohub,2013-01-06 21:21:00,
2013-01-06 13:26:00,39.6,39.0,30.14,SW,232,1.0,6.0,98,0.00,,,0.22,62.0,meteohub,2013-01-06 21:26:00,
2013-01-06 13:31:00,39.6,39.0,30.14,SW,232,0.0,5.0,98,0.00,,,0.22,69.0,meteohub,2013-01-06 21:31:00,
2013-01-06 13:36:00,39.6,39.0,30.14,WSW,238,6.0,6.0,98,0.00,,,0.22,69.0,meteohub,2013-01-06 21:36:00,
2013-01-06 13:42:00,39.6,38.8,30.14,SW,236,2.0,6.0,97,0.00,,,0.22,72.0,meteohub,2013-01-06 21:42:00,
2013-01-06 13:47:00,39.4,38.7,30.14,SW,236,1.0,6.0,97,0.00,,,0.22,70.0,meteohub,2013-01-06 21:47:00,
2013-01-06 13:52:00,39.4,38.3,30.14,WNW,295,1.0,6.0,96,0.00,,,0.22,69.0,meteohub,2013-01-06 21:52:00,
2013-01-06 13:57:00,39.4,38.3,30.14,SW,229,5.0,5.0,96,0.00,,,0.22,70.0,meteohub,2013-01-06 21:57:00,
2013-01-06 14:02:00,39.6,38.5,30.14,West,276,0.0,5.0,96,0.00,,,0.22,79.0,meteohub,2013-01-06 22:02:00,
2013-01-06 14:07:00,39.6,38.5,30.14,WNW,296,0.0,5.0,96,0.00,,,0.22,83.0,meteohub,2013-01-06 22:07:00,
2013-01-06 14:12:00,39.6,38.5,30.14,WNW,296,0.0,5.0,96,0.00,,,0.22,72.0,meteohub,2013-01-06 22:12:00,
2013-01-06 14:17:00,39.6,38.5,30.14,West,259,3.0,5.0,96,0.00,,,0.22,54.0,meteohub,2013-01-06 22:17:00,
2013-01-06 14:22:00,39.6,38.5,30.13,West,259,1.0,4.0,96,0.00,,,0.22,60.0,meteohub,2013-01-06 22:22:00,
2013-01-06 14:27:00,39.6,38.5,30.13,WSW,258,0.0,5.0,96,0.00,,,0.22,67.0,meteohub,2013-01-06 22:27:00,
2013-01-06 14:32:00,39.6,38.5,30.13,West,266,2.0,5.0,96,0.00,,,0.22,53.0,meteohub,2013-01-06 22:32:00,
2013-01-06 14:37:00,39.4,38.3,30.14,WSW,237,2.0,5.0,96,0.00,,,0.22,39.0,meteohub,2013-01-06 22:37:00,
2013-01-06 14:42:00,39.4,38.3,30.14,WSW,244,0.0,5.0,96,0.00,,,0.22,32.0,meteohub,2013-01-06 22:42:00,
2013-01-06 14:47:00,39.2,38.1,30.14,WSW,256,1.0,5.0,96,0.00,,,0.22,28.0,meteohub,2013-01-06 22:47:00,
2013-01-06 14:52:00,39.2,38.1,30.14,WSW,256,0.0,4.0,96,0.00,,,0.22,30.0,meteohub,2013-01-06 22:52:00,
2013-01-06 14:57:00,39.2,38.1,30.14,WSW,256,0.0,3.0,96,0.00,,,0.22,28.0,meteohub,2013-01-06 22:57:00,
2013-01-06 15:02:00,39.0,37.9,30.14,WSW,255,0.0,3.0,96,0.00,,,0.22,28.0,meteohub,2013-01-06 23:02:00,
2013-01-06 15:07:00,38.8,37.8,30.14,WSW,256,2.0,3.0,96,0.00,,,0.22,25.0,meteohub,2013-01-06 23:07:00,
2013-01-06 15:12:00,39.0,37.9,30.14,WSW,257,1.0,3.0,96,0.00,,,0.22,23.0,meteohub,2013-01-06 23:12:00,
2013-01-06 15:17:00,38.8,37.8,30.14,West,263,1.0,4.0,96,0.00,,,0.22,26.0,meteohub,2013-01-06 23:17:00,
2013-01-06 15:22:00,38.8,37.8,30.13,West,263,0.0,4.0,96,0.00,,,0.22,30.0,meteohub,2013-01-06 23:22:00,
2013-01-06 15:27:00,38.8,37.8,30.14,West,263,0.0,4.0,96,0.00,,,0.22,23.0,meteohub,2013-01-06 23:27:00,
2013-01-06 15:32:00,38.8,37.8,30.13,West,263,0.0,3.0,96,0.00,,,0.22,18.0,meteohub,2013-01-06 23:32:00,
2013-01-06 15:37:00,38.8,38.1,30.13,West,263,0.0,2.0,97,0.00,,,0.22,16.0,meteohub,2013-01-06 23:37:00,
2013-01-06 15:42:00,38.8,38.1,30.14,West,263,0.0,0.0,97,0.00,,,0.22,11.0,meteohub,2013-01-06 23:42:00,
2013-01-06 15:47:00,38.8,38.1,30.14,West,263,0.0,0.0,97,0.00,,,0.22,9.0,meteohub,2013-01-06 23:47:00,
2013-01-06 15:52:00,38.8,38.1,30.13,West,263,0.0,0.0,97,0.00,,,0.22,9.0,meteohub,2013-01-06 23:52:00,
2013-01-06 15:57:00,38.8,38.1,30.13,West,263,0.0,0.0,97,0.00,,,0.22,9.0,meteohub,2013-01-06 23:57:00,
2013-01-06 16:02:00,38.7,37.9,30.13,West,263,0.0,0.0,97,0.00,,,0.22,7.0,meteohub,2013-01-07 00:02:00,
2013-01-06 16:07:00,38.7,37.9,30.14,West,263,0.0,2.0,97,0.00,,,0.22,5.0,meteohub,2013-01-07 00:07:00,
2013-01-06 16:12:00,38.5,37.8,30.14,West,263,0.0,2.0,97,0.00,,,0.22,0.0,meteohub,2013-01-07 00:12:00,
2013-01-06 16:17:00,38.5,37.8,30.14,West,263,0.0,2.0,97,0.00,,,0.22,0.0,meteohub,2013-01-07 00:17:00,
2013-01-06 16:22:00,38.3,37.6,30.14,West,263,0.0,1.0,97,0.00,,,0.22,0.0,meteohub,2013-01-07 00:22:00,
2013-01-06 16:27:00,38.3,37.6,30.14,West,263,0.0,0.0,97,0.00,,,0.22,0.0,meteohub,2013-01-07 00:27:00,
2013-01-06 16:32:00,38.1,37.4,30.14,West,263,0.0,0.0,97,0.01,,,0.23,0.0,meteohub,2013-01-07 00:32:00,
2013-01-06 16:37:00,38.1,37.4,30.14,West,263,0.0,0.0,97,0.01,,,0.23,0.0,meteohub,2013-01-07 00:37:00,
2013-01-06 16:42:00,38.1,37.4,30.14,West,263,0.0,0.0,97,0.01,,,0.23,0.0,meteohub,2013-01-07 00:42:00,
2013-01-06 16:47:00,38.1,37.4,30.14,West,263,0.0,0.0,97,0.01,,,0.23,0.0,meteohub,2013-01-07 00:47:00,
2013-01-06 16:52:00,37.9,37.2,30.13,West,263,0.0,0.0,97,0.01,,,0.23,0.0,meteohub,2013-01-07 00:52:00,
2013-01-06 16:57:00,37.9,37.2,30.13,West,263,0.0,1.0,97,0.02,,,0.24,0.0,meteohub,2013-01-07 00:57:00,
2013-01-06 17:02:00,37.9,37.2,30.13,West,263,0.0,1.0,97,0.02,,,0.24,0.0,meteohub,2013-01-07 01:02:00,
2013-01-06 17:07:00,37.9,37.2,30.13,West,263,0.0,1.0,97,0.02,,,0.24,0.0,meteohub,2013-01-07 01:07:00,
2013-01-06 17:12:00,37.9,37.2,30.12,West,263,0.0,0.0,97,0.02,,,0.24,0.0,meteohub,2013-01-07 01:12:00,
2013-01-06 17:17:00,37.9,37.2,30.12,West,263,0.0,1.0,97,0.02,,,0.24,0.0,meteohub,2013-01-07 01:17:00,
2013-01-06 17:22:00,37.8,37.0,30.12,West,263,0.0,1.0,97,0.02,,,0.24,0.0,meteohub,2013-01-07 01:22:00,
2013-01-06 17:27:00,37.8,37.0,30.12,West,263,0.0,0.0,97,0.02,,,0.24,0.0,meteohub,2013-01-07 01:27:00,
2013-01-06 17:32:00,37.8,37.0,30.12,West,263,0.0,0.0,97,0.02,,,0.24,0.0,meteohub,2013-01-07 01:32:00,
2013-01-06 17:38:00,37.6,36.9,30.12,West,263,0.0,1.0,97,0.02,,,0.25,0.0,meteohub,2013-01-07 01:38:00,
2013-01-06 17:43:00,37.6,36.9,30.12,West,263,0.0,2.0,97,0.02,,,0.25,0.0,meteohub,2013-01-07 01:43:00,
2013-01-06 17:48:00,37.2,36.5,30.12,West,263,0.0,2.0,97,0.02,,,0.25,0.0,meteohub,2013-01-07 01:48:00,
2013-01-06 17:53:00,37.2,36.5,30.11,West,263,0.0,1.0,97,0.02,,,0.25,0.0,meteohub,2013-01-07 01:53:00,
2013-01-06 17:58:00,37.2,36.5,30.11,West,263,1.0,2.0,97,0.01,,,0.25,0.0,meteohub,2013-01-07 01:58:00,
2013-01-06 18:03:00,37.0,36.3,30.12,West,263,0.0,2.0,97,0.01,,,0.25,0.0,meteohub,2013-01-07 02:03:00,
2013-01-06 18:08:00,36.9,36.1,30.12,West,263,0.0,3.0,97,0.01,,,0.25,0.0,meteohub,2013-01-07 02:08:00,
2013-01-06 18:13:00,36.9,36.1,30.12,West,263,1.0,3.0,97,0.01,,,0.25,0.0,meteohub,2013-01-07 02:13:00,
2013-01-06 18:18:00,36.9,36.1,30.11,West,263,0.0,3.0,97,0.01,,,0.25,0.0,meteohub,2013-01-07 02:18:00,
2013-01-06 18:23:00,36.9,36.1,30.12,West,263,0.0,2.0,97,0.01,,,0.25,0.0,meteohub,2013-01-07 02:23:00,
2013-01-06 18:28:00,36.9,36.3,30.11,West,263,0.0,1.0,98,0.01,,,0.25,0.0,meteohub,2013-01-07 02:28:00,
2013-01-06 18:33:00,36.9,36.3,30.12,West,263,0.0,1.0,98,0.00,,,0.25,0.0,meteohub,2013-01-07 02:33:00,
2013-01-06 18:38:00,36.7,36.1,30.12,West,263,1.0,2.0,98,0.00,,,0.25,0.0,meteohub,2013-01-07 02:38:00,
2013-01-06 18:43:00,36.7,36.1,30.12,West,263,0.0,3.0,98,0.00,,,0.25,0.0,meteohub,2013-01-07 02:43:00,
2013-01-06 18:48:00,36.7,36.1,30.12,West,263,0.0,3.0,98,0.00,,,0.25,0.0,meteohub,2013-01-07 02:48:00,
2013-01-06 18:53:00,36.7,36.1,30.12,West,263,1.0,3.0,98,0.01,,,0.26,0.0,meteohub,2013-01-07 02:53:00,
2013-01-06 18:58:00,36.7,36.1,30.12,West,263,1.0,2.0,98,0.01,,,0.26,0.0,meteohub,2013-01-07 02:58:00,
2013-01-06 19:03:00,36.7,36.1,30.12,West,263,0.0,2.0,98,0.01,,,0.26,0.0,meteohub,2013-01-07 03:03:00,
2013-01-06 19:08:00,36.7,36.1,30.12,West,263,0.0,2.0,98,0.01,,,0.26,0.0,meteohub,2013-01-07 03:08:00,
2013-01-06 19:13:00,36.5,36.0,30.12,West,263,0.0,2.0,98,0.01,,,0.26,0.0,meteohub,2013-01-07 03:13:00,
2013-01-06 19:18:00,36.5,36.0,30.12,West,263,0.0,1.0,98,0.02,,,0.27,0.0,meteohub,2013-01-07 03:18:00,
2013-01-06 19:23:00,36.5,36.0,30.12,West,263,0.0,1.0,98,0.02,,,0.27,0.0,meteohub,2013-01-07 03:23:00,
2013-01-06 19:28:00,36.7,36.1,30.12,West,263,0.0,1.0,98,0.02,,,0.27,0.0,meteohub,2013-01-07 03:28:00,
2013-01-06 19:33:00,36.7,36.1,30.12,West,263,0.0,1.0,98,0.02,,,0.27,0.0,meteohub,2013-01-07 03:33:00,
2013-01-06 19:38:00,36.5,36.0,30.12,West,263,0.0,2.0,98,0.02,,,0.27,0.0,meteohub,2013-01-07 03:38:00,
2013-01-06 19:43:00,36.5,36.0,30.11,West,263,0.0,2.0,98,0.03,,,0.28,0.0,meteohub,2013-01-07 03:43:00,
2013-01-06 19:49:00,36.5,36.0,30.11,West,263,0.0,2.0,98,0.02,,,0.28,0.0,meteohub,2013-01-07 03:49:00,
2013-01-06 19:54:00,36.5,36.0,30.11,West,263,0.0,2.0,98,0.02,,,0.28,0.0,meteohub,2013-01-07 03:54:00,
2013-01-06 19:59:00,36.3,35.8,30.11,West,263,0.0,2.0,98,0.02,,,0.28,0.0,meteohub,2013-01-07 03:59:00,
2013-01-06 20:04:00,36.3,35.8,30.11,West,263,0.0,1.0,98,0.02,,,0.28,0.0,meteohub,2013-01-07 04:04:00,
2013-01-06 20:09:00,36.1,35.6,30.12,West,263,0.0,1.0,98,0.02,,,0.28,0.0,meteohub,2013-01-07 04:09:00,
2013-01-06 20:14:00,36.1,35.6,30.11,West,263,0.0,1.0,98,0.01,,,0.28,0.0,meteohub,2013-01-07 04:14:00,
2013-01-06 20:19:00,36.1,35.6,30.11,West,263,0.0,1.0,98,0.02,,,0.29,0.0,meteohub,2013-01-07 04:19:00,
2013-01-06 20:24:00,36.1,35.6,30.12,West,263,0.0,1.0,98,0.02,,,0.29,0.0,meteohub,2013-01-07 04:24:00,
2013-01-06 20:29:00,36.0,35.4,30.12,West,263,0.0,1.0,98,0.02,,,0.29,0.0,meteohub,2013-01-07 04:29:00,
2013-01-06 20:34:00,36.0,35.4,30.11,West,263,0.0,2.0,98,0.02,,,0.29,0.0,meteohub,2013-01-07 04:34:00,
2013-01-06 20:39:00,36.0,35.4,30.11,West,263,0.0,2.0,98,0.01,,,0.29,0.0,meteohub,2013-01-07 04:39:00,
2013-01-06 20:44:00,36.0,35.4,30.11,West,263,1.0,2.0,98,0.01,,,0.29,0.0,meteohub,2013-01-07 04:44:00,
2013-01-06 20:49:00,36.0,35.4,30.11,West,263,0.0,2.0,98,0.01,,,0.29,0.0,meteohub,2013-01-07 04:49:00,
2013-01-06 20:54:00,36.0,35.4,30.11,West,263,0.0,2.0,98,0.01,,,0.29,0.0,meteohub,2013-01-07 04:54:00,
2013-01-06 20:59:00,36.0,35.4,30.10,West,263,0.0,2.0,98,0.01,,,0.29,0.0,meteohub,2013-01-07 04:59:00,
2013-01-06 21:00:00,36.0,35.4,30.10,West,263,0.0,1.0,98,0.01,,,0.29,0.0,meteohub,2013-01-07 05:00:00,
2013-01-06 21:01:00,36.0,35.4,30.10,West,263,0.0,1.0,98,0.01,,,0.29,0.0,meteohub,2013-01-07 05:01:00,
2013-01-06 21:04:00,36.0,35.4,30.10,West,263,0.0,1.0,98,0.01,,,0.29,0.0,meteohub,2013-01-07 05:04:00,
2013-01-06 21:05:00,36.0,35.4,30.10,West,263,0.0,1.0,98,0.01,,,0.29,0.0,meteohub,2013-01-07 05:05:00,
2013-01-06 21:10:00,35.8,35.2,30.10,West,263,0.0,1.0,98,0.00,,,0.29,0.0,meteohub,2013-01-07 05:10:00,
2013-01-06 21:15:00,35.8,35.2,30.09,West,263,0.0,1.0,98,0.00,,,0.29,0.0,meteohub,2013-01-07 05:15:00,
2013-01-06 21:20:00,35.8,35.2,30.08,West,263,0.0,1.0,98,0.00,,,0.29,0.0,meteohub,2013-01-07 05:20:00,
2013-01-06 21:25:00,35.8,35.2,30.08,West,263,0.0,1.0,98,0.00,,,0.29,0.0,meteohub,2013-01-07 05:25:00,
2013-01-06 21:30:00,35.8,35.2,30.07,West,263,0.0,0.0,98,0.00,,,0.29,0.0,meteohub,2013-01-07 05:30:00,
2013-01-06 21:35:00,36.0,35.4,30.08,West,263,0.0,0.0,98,0.00,,,0.29,0.0,meteohub,2013-01-07 05:35:00,
2013-01-06 21:40:00,35.8,35.2,30.07,West,263,0.0,0.0,98,0.00,,,0.29,0.0,meteohub,2013-01-07 05:40:00,
2013-01-06 21:45:00,35.8,35.2,30.08,West,263,0.0,0.0,98,0.00,,,0.29,0.0,meteohub,2013-01-07 05:45:00,
2013-01-06 21:50:00,35.8,35.2,30.07,West,263,0.0,0.0,98,0.00,,,0.29,0.0,meteohub,2013-01-07 05:50:00,
2013-01-06 21:55:00,36.0,35.4,30.07,West,263,0.0,0.0,98,0.00,,,0.29,0.0,meteohub,2013-01-07 05:55:00,
2013-01-06 22:01:00,36.0,35.4,30.07,West,263,0.0,0.0,98,0.00,,,0.29,0.0,meteohub,2013-01-07 06:01:00,
2013-01-06 22:06:00,36.0,35.4,30.07,West,263,0.0,0.0,98,0.00,,,0.29,0.0,meteohub,2013-01-07 06:06:00,
2013-01-06 22:11:00,35.8,35.2,30.07,West,263,0.0,0.0,98,0.00,,,0.29,0.0,meteohub,2013-01-07 06:11:00,
2013-01-06 22:16:00,35.8,35.2,30.07,West,263,0.0,0.0,98,0.01,,,0.30,0.0,meteohub,2013-01-07 06:16:00,
2013-01-06 22:21:00,35.8,35.2,30.07,West,263,1.0,0.0,98,0.01,,,0.30,0.0,meteohub,2013-01-07 06:21:00,
2013-01-06 22:26:00,35.6,35.1,30.08,West,263,0.0,1.0,98,0.01,,,0.30,0.0,meteohub,2013-01-07 06:26:00,
2013-01-06 22:31:00,35.6,35.1,30.07,West,263,0.0,2.0,98,0.01,,,0.30,0.0,meteohub,2013-01-07 06:31:00,
2013-01-06 22:36:00,35.6,35.1,30.07,West,263,0.0,2.0,98,0.01,,,0.30,0.0,meteohub,2013-01-07 06:36:00,
2013-01-06 22:41:00,35.4,34.9,30.07,West,263,0.0,2.0,98,0.01,,,0.30,0.0,meteohub,2013-01-07 06:41:00,
2013-01-06 22:46:00,35.4,34.9,30.07,West,263,0.0,1.0,98,0.01,,,0.30,0.0,meteohub,2013-01-07 06:46:00,
2013-01-06 22:51:00,35.4,34.9,30.07,West,263,0.0,1.0,98,0.01,,,0.30,0.0,meteohub,2013-01-07 06:51:00,
2013-01-06 22:56:00,35.4,34.9,30.06,West,263,0.0,1.0,98,0.01,,,0.30,0.0,meteohub,2013-01-07 06:56:00,
2013-01-06 23:01:00,35.2,34.7,30.06,West,263,0.0,0.0,98,0.01,,,0.30,0.0,meteohub,2013-01-07 07:01:00,
2013-01-06 23:06:00,35.2,34.7,30.06,West,263,0.0,1.0,98,0.01,,,0.30,0.0,meteohub,2013-01-07 07:06:00,
2013-01-06 23:11:00,35.2,34.7,30.06,West,263,1.0,1.0,98,0.01,,,0.30,0.0,meteohub,2013-01-07 07:11:00,
2013-01-06 23:16:00,35.2,34.7,30.05,West,263,0.0,1.0,98,0.00,,,0.30,0.0,meteohub,2013-01-07 07:16:00,
2013-01-06 23:21:00,35.2,34.7,30.05,West,263,1.0,2.0,98,0.00,,,0.30,0.0,meteohub,2013-01-07 07:21:00,
2013-01-06 23:26:00,35.2,34.7,30.05,West,263,0.0,2.0,98,0.00,,,0.30,0.0,meteohub,2013-01-07 07:26:00,
2013-01-06 23:31:00,35.2,34.7,30.06,West,263,0.0,2.0,98,0.00,,,0.30,0.0,meteohub,2013-01-07 07:31:00,
2013-01-06 23:36:00,35.2,34.7,30.06,West,263,0.0,1.0,98,0.00,,,0.30,0.0,meteohub,2013-01-07 07:36:00,
2013-01-06 23:41:00,35.2,34.7,30.06,West,263,0.0,1.0,98,0.00,,,0.30,0.0,meteohub,2013-01-07 07:41:00,
2013-01-06 23:47:00,35.2,35.1,30.06,West,263,0.0,0.0,99,0.00,,,0.30,0.0,meteohub,2013-01-07 07:47:00,
2013-01-06 23:52:00,35.4,35.2,30.06,West,263,0.0,0.0,99,0.00,,,0.30,0.0,meteohub,2013-01-07 07:52:00,
2013-01-06 23:57:00,35.4,35.2,30.05,West,263,0.0,0.0,99,0.00,,,0.30,0.0,meteohub,2013-01-07 07:57:00,